Location: Marcé
(47.5801°N, 0.3280°W)
Time: 00:01:39
(UTC+01:00)

S-56A Canister/Altair - Pass Details

Date: 06 December 2021
Orbit: 633 x 2499 km, 38.9° (Epoch: 17 January)

Event Time Altitude Azimuth Distance (km) Brightness Sun altitude
Rises 05:15:01 0° 270° (W) 3,948 - -32.6°
Reaches altitude 10° 05:18:57 10° 253° (WSW) 2,663 - -32.0°
Maximum altitude 05:22:55 18° 212° (SSW) 1,875 - -31.3°
Drops below altitude 10° 05:26:15 10° 169° (S) 2,178 - -30.7°
Exits shadow 05:26:16 10° 169° (S) 2,181 9.9 -30.7°
Sets 05:29:03 0° 149° (SSE) 2,976 11.0 -30.3°
